Home > Weather > Chesterfield > Past weeks

Flag for United Kingdom Weather for the Past 2 Weeks in Chesterfield, England, United Kingdom

Now
50 °F

Cool.


Feels Like: 49 °F
Forecast: 48 / 68 °F
Wind: 5 mph from East

Location: Nottingham Weather Centre

Current Time: May 6, 2016 at 1:11:17 AM

Latest Report: May 6, 2016 at 12:00 AM


Visibility: 14 mi

Pressure: 30.05 "Hg

Humidity: 61%

Dew Point: 37 °F

Location of ChesterfieldLocation

Historic Weather in Chesterfield — Graph

°F

Chesterfield Temperature Yesterday

Maximum temperature yesterday: 67 °F (at 5:00 PM)
Minimum temperature yesterday: 40 °F (at 6:00 AM)
Average temperature yesterday: 56 °F

High & Low Weather Summary for the Past Weeks

 TemperatureHumidityPressure
High67 °F (May 5, 5:00 PM)98% (Apr 21, 6:00 AM)30.41 "Hg (Apr 21, 6:00 AM)
Low35 °F (Apr 24, 4:00 AM)36% (May 5, 5:00 PM)29.68 "Hg (Apr 29, 12:00 PM)
Average46 °F72%30.13 "Hg
* Reported Apr 20 11:00 PM — May 5 11:00 PM, Chesterfield, Weather by CustomWeather, © 2016

Note: Actual official high and low records may vary slightly from our data, if they occured in-between our weather recording intervals... More about our weather records

Advertising

Chesterfield Weather History for the Previous 24 Hours

Scroll right to see more
 ConditionsComfort  
Time TempWeatherWind HumidityBarometerVisibility
11:00 PM
Thu, May 5
54 °FCool.8 mph51%30.04 "Hg12 mi
10:00 PM57 °FRefreshingly cool.8 mph45%30.04 "Hg31 mi
9:00 PM60 °FRefreshingly cool.9 mph50%30.03 "Hg7 mi
8:00 PM63 °FMild.9 mph44%30.02 "Hg12 mi
7:00 PM66 °FMild.10 mph38%30.02 "Hg14 mi
6:00 PM67 °FMild.7 mph40%30.03 "Hg6 mi
5:00 PM67 °FMild.7 mph36%30.04 "Hg16 mi
4:00 PM67 °FMild.9 mph38%30.06 "Hg12 mi
3:00 PM67 °FMild.8 mph38%30.07 "Hg28 mi
2:00 PM66 °FMild.12 mph42%30.09 "Hg14 mi
1:00 PM66 °FMild.8 mph41%30.10 "Hg18 mi
12:00 PM63 °FMild.8 mph43%30.13 "Hg31 mi
11:00 AM60 °FRefreshingly cool.7 mph46%30.14 "Hg7 mi
10:00 AM57 °FRefreshingly cool.5 mph52%30.15 "Hg31 mi
9:00 AM53 °FCool.5 mph59%30.16 "Hg11 mi
8:00 AM49 °FCool.5 mph62%30.17 "Hg19 mi
7:00 AM44 °FQuite cool.2 mph72%30.18 "Hg12 mi
6:00 AM40 °FChilly.1 mph81%30.18 "Hg16 mi
5:00 AM43 °FQuite cool.3 mph74%30.19 "Hg18 mi
4:00 AM44 °FQuite cool.3 mph72%30.19 "Hg18 mi
3:00 AM46 °FSmoke.5 mph70%30.19 "Hg25 mi
2:00 AM48 °FCool.5 mph68%30.19 "Hg17 mi
1:00 AM50 °FCool.6 mph64%30.19 "Hg25 mi
Weather by CustomWeather, © 2016

See weather overviewHow to use our weather pages